sat.trackr.live / text

‹ back to catalog

STARLINK-32022

NORAD 60149 · 2024-120Q

PAYLOAD ACTIVE UNKNOWN

§ Identity

Operator
Country
US
Launch date
2024-06-27
Launch site
AFETR
Launch vehicle
Mass (kg)
RCS (m²)

Purposes: comms

External: N2YO · Heavens-Above · Gunter

§ Orbital elements

Epoch: 2026-05-24T21:24:43.863840Z

Period
94.11 min
Inclination
53.1618°
Eccentricity
0.0001160
Mean motion
15.30188582 rev/d
Perigee alt
474.5 km
Apogee alt
476.0 km
Semi-major
6,853.4 km
B*
-4.4342e-6
RAAN
325.9323°
Arg perigee
85.0095°
Mean anomaly
275.1038°
Rev number
10,812

§ Raw data

STARLINK-320221 60149U 24120Q   26144.89217435 -.00000490  00000+0 -44342-5 0  99912 60149  53.1618 325.9323 0001160  85.0095 275.1038 15.30188582108127

JSON: /api/v1/satellites/60149 · /tle

For live sub-satellite position, see the globe view (requires WebGL).

§ Visibility from observer

Set your observer location to see the next 7 days of passes ≥ 10°. The values pass through the URL so the page stays shareable.

No JS? Fill the form by hand. The geolocation button needs JavaScript.